When you browse on this site, cookies collect data to enhance your experience and personalize the content and advertising you see.
Visit our Privacy Policy to learn more. By continuing to use the site, you agree to this use of cookies and data.
  • In Sweden
  • List of Countries
  • For 7 days
  • Water Temperature
  • Weather Map
  • Weather Widgets
  • user-avatar
    Login

    Hourly Weather Agasegyhaza

    Today, 5 June, Friday

    Time Temperature Precipitation Wind Pressure Humidity
    00:00 +18°C° 0 mm 4 mps 740 mmHg 77%
    01:00 +18°C° 0 mm 4 mps 740 mmHg 75%
    02:00 +17°C° 0 mm 4 mps 740 mmHg 74%
    03:00 +17°C° 0 mm 4 mps 740 mmHg 72%
    04:00 +16°C° 0 mm 5 mps 740 mmHg 70%
    05:00 +16°C° 0.1 mm 5 mps 740 mmHg 70%
    06:00 +17°C° 0.1 mm 6 mps 740 mmHg 69%
    07:00 +19°C° 0 mm 5 mps 741 mmHg 71%
    08:00 +20°C° 0.1 mm 6 mps 741 mmHg 69%
    09:00 +21°C° 0.1 mm 6 mps 740 mmHg 68%
    10:00 +22°C° 0.1 mm 7 mps 740 mmHg 66%
    11:00 +22°C° 0.4 mm 7 mps 740 mmHg 66%
    12:00 +23°C° 0.4 mm 7 mps 740 mmHg 67%
    13:00 +23°C° 0.4 mm 8 mps 740 mmHg 67%
    14:00 +22°C° 0.5 mm 8 mps 740 mmHg 70%
    15:00 +22°C° 0.5 mm 8 mps 740 mmHg 74%
    16:00 +21°C° 0.5 mm 8 mps 741 mmHg 77%
    17:00 +20°C° 0.1 mm 7 mps 741 mmHg 80%
    18:00 +19°C° 0.1 mm 5 mps 741 mmHg 83%
    19:00 +19°C° 0.1 mm 4 mps 742 mmHg 86%
    20:00 +18°C° 0.1 mm 3 mps 742 mmHg 88%
    21:00 +18°C° 0.1 mm 3 mps 743 mmHg 90%
    22:00 +17°C° 0.1 mm 3 mps 744 mmHg 92%
    23:00 +17°C° 0 mm 2 mps 744 mmHg 92%

    Tomorrow, 6 June, Saturday

    Time Temperature Precipitation Wind Pressure Humidity
    00:00 +17°C° 0 mm 2 mps 744 mmHg 92%
    01:00 +18°C° 0 mm 1 mps 745 mmHg 92%
    02:00 +16°C° 0 mm 1 mps 745 mmHg 92%
    03:00 +16°C° 0 mm 1 mps 746 mmHg 93%
    04:00 +15°C° 0 mm 1 mps 746 mmHg 93%
    05:00 +17°C° 0 mm 2 mps 746 mmHg 88%
    06:00 +18°C° 0 mm 2 mps 746 mmHg 84%
    07:00 +19°C° 0 mm 3 mps 747 mmHg 79%
    08:00 +21°C° 0 mm 3 mps 747 mmHg 72%
    09:00 +22°C° 0 mm 3 mps 747 mmHg 66%
    10:00 +25°C° 0 mm 3 mps 747 mmHg 60%
    11:00 +26°C° 0 mm 3 mps 747 mmHg 57%
    12:00 +27°C° 0 mm 3 mps 746 mmHg 54%
    13:00 +28°C° 0 mm 3 mps 746 mmHg 50%
    14:00 +28°C° 0 mm 3 mps 746 mmHg 50%
    15:00 +28°C° 0 mm 3 mps 745 mmHg 50%
    16:00 +28°C° 0 mm 3 mps 745 mmHg 50%
    17:00 +27°C° 0 mm 3 mps 745 mmHg 57%
    18:00 +25°C° 0 mm 3 mps 744 mmHg 65%
    19:00 +24°C° 0 mm 3 mps 744 mmHg 72%
    20:00 +22°C° 0.8 mm 3 mps 744 mmHg 76%
    21:00 +21°C° 0.8 mm 3 mps 744 mmHg 80%
    22:00 +20°C° 0.8 mm 3 mps 744 mmHg 85%
    23:00 +19°C° 0.5 mm 3 mps 744 mmHg 86%

    Day after tomorrow, 7 June, Sunday

    Time Temperature Precipitation Wind Pressure Humidity
    00:00 +19°C° 0.5 mm 3 mps 744 mmHg 87%
    01:00 +19°C° 0.5 mm 3 mps 744 mmHg 88%
    02:00 +18°C° 0.3 mm 2 mps 744 mmHg 90%
    03:00 +18°C° 0.3 mm 2 mps 744 mmHg 92%
    04:00 +17°C° 0.3 mm 2 mps 744 mmHg 94%
    05:00 +18°C° 0 mm 3 mps 745 mmHg 90%
    06:00 +20°C° 0 mm 3 mps 745 mmHg 86%
    07:00 +21°C° 0 mm 4 mps 745 mmHg 81%
    08:00 +22°C° 0 mm 4 mps 745 mmHg 76%
    09:00 +25°C° 0 mm 4 mps 745 mmHg 71%
    10:00 +26°C° 0 mm 3 mps 746 mmHg 66%
    11:00 +27°C° 0.9 mm 3 mps 745 mmHg 63%
    12:00 +27°C° 0.9 mm 3 mps 745 mmHg 60%
    13:00 +28°C° 0.9 mm 3 mps 745 mmHg 56%
    14:00 +27°C° 2.1 mm 3 mps 745 mmHg 61%
    15:00 +26°C° 2.1 mm 3 mps 745 mmHg 65%
    16:00 +25°C° 2.1 mm 2 mps 744 mmHg 69%
    17:00 +25°C° 0.4 mm 2 mps 745 mmHg 72%
    18:00 +24°C° 0.4 mm 2 mps 745 mmHg 75%
    19:00 +23°C° 0.4 mm 2 mps 745 mmHg 77%
    20:00 +21°C° 0.4 mm 2 mps 745 mmHg 79%
    21:00 +20°C° 0.4 mm 2 mps 745 mmHg 81%
    22:00 +19°C° 0.4 mm 2 mps 746 mmHg 82%
    23:00 +19°C° 0.3 mm 2 mps 746 mmHg 85%

    8 June, Monday

    Time Temperature Precipitation Wind Pressure Humidity
    00:00 +18°C° 0.3 mm 2 mps 746 mmHg 87%
    01:00 +18°C° 0.3 mm 3 mps 746 mmHg 89%
    02:00 +18°C° 0 mm 2 mps 746 mmHg 88%
    03:00 +17°C° 0 mm 2 mps 746 mmHg 87%
    04:00 +18°C° 0 mm 1 mps 746 mmHg 86%
    05:00 +19°C° 0.1 mm 1 mps 746 mmHg 83%
    06:00 +21°C° 0.1 mm 1 mps 746 mmHg 80%
    07:00 +22°C° 0.1 mm 1 mps 747 mmHg 76%
    08:00 +23°C° 0.3 mm 1 mps 747 mmHg 71%
    09:00 +24°C° 0.3 mm 1 mps 747 mmHg 66%
    10:00 +25°C° 0.3 mm 2 mps 747 mmHg 61%
    11:00 +26°C° 0 mm 2 mps 747 mmHg 57%
    12:00 +27°C° 0 mm 2 mps 747 mmHg 54%
    13:00 +28°C° 0 mm 2 mps 747 mmHg 51%
    14:00 +26°C° 1.2 mm 3 mps 746 mmHg 59%
    15:00 +25°C° 1.2 mm 4 mps 746 mmHg 66%
    16:00 +23°C° 1.2 mm 6 mps 746 mmHg 74%
    17:00 +22°C° 0.1 mm 5 mps 746 mmHg 77%
    18:00 +21°C° 0.1 mm 4 mps 746 mmHg 81%
    19:00 +20°C° 0.1 mm 3 mps 746 mmHg 84%
    20:00 +20°C° 0 mm 3 mps 747 mmHg 86%
    21:00 +19°C° 0 mm 3 mps 747 mmHg 87%
    22:00 +18°C° 0 mm 3 mps 747 mmHg 89%
    23:00 +17°C° 0 mm 3 mps 747 mmHg 90%

    9 June, Tuesday

    Time Temperature Precipitation Wind Pressure Humidity
    00:00 +16°C° 0 mm 3 mps 747 mmHg 90%
    01:00 +16°C° 0 mm 3 mps 747 mmHg 91%
    02:00 +14°C° 0 mm 3 mps 747 mmHg 91%
    03:00 +14°C° 0 mm 3 mps 747 mmHg 91%
    04:00 +13°C° 0 mm 3 mps 747 mmHg 91%
    05:00 +16°C° 0 mm 3 mps 748 mmHg 86%
    06:00 +17°C° 0 mm 3 mps 748 mmHg 82%
    07:00 +19°C° 0 mm 3 mps 748 mmHg 77%
    08:00 +20°C° 0 mm 2 mps 748 mmHg 72%
    09:00 +23°C° 0 mm 2 mps 749 mmHg 66%
    10:00 +25°C° 0 mm 2 mps 749 mmHg 60%
    11:00 +25°C° 0 mm 2 mps 748 mmHg 57%
    12:00 +26°C° 0 mm 2 mps 748 mmHg 55%
    13:00 +27°C° 0 mm 2 mps 748 mmHg 52%
    14:00 +27°C° 0 mm 2 mps 747 mmHg 51%
    15:00 +27°C° 0 mm 2 mps 747 mmHg 51%
    16:00 +28°C° 0 mm 1 mps 747 mmHg 51%
    17:00 +26°C° 0.1 mm 1 mps 747 mmHg 57%
    18:00 +25°C° 0.1 mm 1 mps 747 mmHg 63%
    19:00 +24°C° 0.1 mm 1 mps 747 mmHg 69%
    20:00 +23°C° 0.4 mm 1 mps 747 mmHg 73%
    21:00 +21°C° 0.4 mm 1 mps 747 mmHg 78%
    22:00 +20°C° 0.4 mm 1 mps 748 mmHg 82%
    23:00 +19°C° 0.4 mm 2 mps 748 mmHg 85%

    10 June, Wednesday

    Time Temperature Precipitation Wind Pressure Humidity
    00:00 +18°C° 0.4 mm 2 mps 748 mmHg 89%
    01:00 +17°C° 0.4 mm 3 mps 748 mmHg 92%
    02:00 +17°C° 0.1 mm 3 mps 748 mmHg 93%
    03:00 +17°C° 0.1 mm 3 mps 748 mmHg 93%
    04:00 +16°C° 0.1 mm 3 mps 748 mmHg 94%
    05:00 +18°C° 0 mm 3 mps 748 mmHg 90%
    06:00 +19°C° 0 mm 3 mps 748 mmHg 86%
    07:00 +20°C° 0 mm 3 mps 748 mmHg 82%
    08:00 +22°C° 0 mm 3 mps 748 mmHg 77%
    09:00 +24°C° 0 mm 3 mps 748 mmHg 71%
    10:00 +25°C° 0 mm 3 mps 748 mmHg 66%
    11:00 +26°C° 0.1 mm 3 mps 748 mmHg 64%
    12:00 +27°C° 0.1 mm 3 mps 747 mmHg 61%
    13:00 +27°C° 0.1 mm 3 mps 747 mmHg 59%
    14:00 +27°C° 0.8 mm 3 mps 747 mmHg 59%
    15:00 +27°C° 0.8 mm 3 mps 747 mmHg 59%
    16:00 +27°C° 0.8 mm 2 mps 747 mmHg 59%
    17:00 +26°C° 1.4 mm 2 mps 747 mmHg 67%
    18:00 +24°C° 1.4 mm 2 mps 747 mmHg 74%
    19:00 +23°C° 1.4 mm 2 mps 747 mmHg 82%
    20:00 +21°C° 0.9 mm 2 mps 747 mmHg 84%
    21:00 +20°C° 0.9 mm 2 mps 747 mmHg 86%
    22:00 +19°C° 0.9 mm 2 mps 747 mmHg 88%
    23:00 +19°C° 0.8 mm 2 mps 747 mmHg 90%
    Show more